| time (UTC) | temp C | wind direction | speed KPH | gust KPH | rain 1hr cm | rain 24hr cm | rain mn cm | humidity % | barometer mb |
| 20260510134047 | 8 | 0 | 0.0 | 0.0 | 0.00 | 0.00 | 0.00 | 95 | 1017.3 |
| 20260510133544 | 8 | 0 | 0.0 | 0.0 | 0.00 | 0.00 | 0.00 | 95 | 1017.2 |
| 20260510133056 | 8 | 0 | 0.0 | 3.2 | 0.00 | 0.00 | 0.00 | 95 | 1017.3 |
| 20260510132546 | 8 | 0 | 0.0 | 3.2 | 0.00 | 0.00 | 0.00 | 95 | 1017.3 |
| 20260510132049 | 8 | 0 | 0.0 | 0.0 | 0.00 | 0.00 | 0.00 | 95 | 1017.3 |
| 20260510131555 | 8 | 0 | 0.0 | 0.0 | 0.00 | 0.00 | 0.00 | 99 | 1017.2 |
| 20260510131046 | 8 | 0 | 0.0 | 0.0 | 0.00 | 0.00 | 0.00 | 95 | 1017.1 |
| 20260510130545 | 8 | 0 | 0.0 | 0.0 | 0.00 | 0.00 | 0.00 | 95 | 1017.0 |
| 20260510130057 | 7 | 0 | 0.0 | 0.0 | 0.00 | 0.00 | 0.00 | 94 | 1017.0 |
| 20260510125546 | 7 | 0 | 0.0 | 0.0 | 0.00 | 0.00 | 0.00 | 95 | 1017.0 |
| 20260510125047 | 7 | 0 | 0.0 | 0.0 | 0.00 | 0.00 | 0.00 | 94 | 1017.0 |
| 20260510124612 | 7 | 0 | 0.0 | 0.0 | 0.00 | 0.00 | 0.00 | 94 | 1016.9 |
| 20260510124047 | 7 | 0 | 0.0 | 0.0 | 0.00 | 0.00 | 0.00 | 94 | 1016.9 |
| 20260510123544 | 7 | 0 | 0.0 | 0.0 | 0.00 | 0.00 | 0.00 | 94 | 1017.0 |
| 20260510123055 | 7 | 0 | 0.0 | 0.0 | 0.00 | 0.00 | 0.00 | 94 | 1017.1 |
| 20260510122546 | 7 | 0 | 0.0 | 0.0 | 0.00 | 0.00 | 0.00 | 94 | 1017.1 |
| 20260510122047 | 7 | 0 | 0.0 | 0.0 | 0.00 | 0.00 | 0.00 | 94 | 1017.2 |
| 20260510121554 | 7 | 0 | 0.0 | 0.0 | 0.00 | 0.00 | 0.00 | 94 | 1017.1 |
| 20260510121047 | 8 | 0 | 0.0 | 0.0 | 0.00 | 0.00 | 0.00 | 94 | 1017.1 |
| 20260510120546 | 8 | 0 | 0.0 | 0.0 | 0.00 | 0.00 | 0.00 | 94 | 1017.1 |
| 20260510120105 | 8 | 0 | 0.0 | 0.0 | 0.00 | 0.00 | 0.00 | 93 | 1017.1 |
| 20260510115546 | 8 | 0 | 0.0 | 0.0 | 0.00 | 0.00 | 0.00 | 93 | 1017.2 |
| 20260510115046 | 8 | 0 | 0.0 | 0.0 | 0.00 | 0.00 | 0.00 | 93 | 1017.0 |
| 20260510114556 | 8 | 0 | 0.0 | 0.0 | 0.00 | 0.00 | 0.00 | 93 | 1017.1 |
| 20260510114046 | 8 | 0 | 0.0 | 0.0 | 0.00 | 0.00 | 0.00 | 93 | 1016.9 |
| 20260510113545 | 8 | 0 | 0.0 | 0.0 | 0.00 | 0.00 | 0.00 | 93 | 1017.0 |
| 20260510113055 | 8 | 0 | 0.0 | 0.0 | 0.00 | 0.00 | 0.00 | 93 | 1016.8 |
| 20260510112544 | 8 | 0 | 0.0 | 0.0 | 0.00 | 0.00 | 0.00 | 93 | 1016.9 |
| 20260510112046 | 8 | 0 | 0.0 | 0.0 | 0.00 | 0.00 | 0.00 | 93 | 1016.8 |
| 20260510111558 | 8 | 0 | 0.0 | 0.0 | 0.00 | 0.00 | 0.00 | 93 | 1016.8 |
| 20260510111045 | 8 | 0 | 0.0 | 0.0 | 0.00 | 0.00 | 0.00 | 93 | 1016.8 |
| 20260510110547 | 8 | 0 | 0.0 | 0.0 | 0.00 | 0.00 | 0.00 | 92 | 1016.7 |
| 20260510110056 | 8 | 0 | 0.0 | 0.0 | 0.00 | 0.00 | 0.00 | 92 | 1016.6 |
| 20260510105547 | 8 | 0 | 0.0 | 1.6 | 0.00 | 0.00 | 0.00 | 92 | 1016.7 |
| 20260510105047 | 8 | 0 | 0.0 | 1.6 | 0.00 | 0.00 | 0.00 | 92 | 1016.8 |
| 20260510104603 | 9 | 0 | 0.0 | 1.6 | 0.00 | 0.00 | 0.00 | 92 | 1016.9 |
| 20260510104047 | 9 | 0 | 0.0 | 0.0 | 0.00 | 0.00 | 0.00 | 92 | 1016.9 |
| 20260510103546 | 9 | 0 | 0.0 | 0.0 | 0.00 | 0.00 | 0.00 | 92 | 1016.8 |
| 20260510103052 | 9 | 0 | 0.0 | 0.0 | 0.00 | 0.00 | 0.00 | 92 | 1016.8 |
| 20260510102548 | 9 | 0 | 0.0 | 0.0 | 0.00 | 0.00 | 0.00 | 91 | 1016.9 |
| 20260510102048 | 9 | 0 | 0.0 | 1.6 | 0.00 | 0.00 | 0.00 | 91 | 1016.8 |
| 20260510101551 | 10 | 0 | 0.0 | 3.2 | 0.00 | 0.00 | 0.00 | 91 | 1016.9 |
| 20260510101045 | 10 | 0 | 0.0 | 3.2 | 0.00 | 0.00 | 0.00 | 91 | 1016.9 |
| 20260510100546 | 10 | 0 | 0.0 | 4.8 | 0.00 | 0.00 | 0.00 | 91 | 1016.8 |
| 20260510100052 | 10 | 0 | 0.0 | 4.8 | 0.00 | 0.00 | 0.00 | 91 | 1016.8 |
| 20260510095546 | 10 | 0 | 0.0 | 4.8 | 0.00 | 0.00 | 0.00 | 91 | 1016.7 |
| 20260510095046 | 10 | 35 | 0.0 | 4.8 | 0.00 | 0.00 | 0.00 | 91 | 1016.8 |
| 20260510094601 | 10 | 34 | 0.0 | 3.2 | 0.00 | 0.00 | 0.00 | 90 | 1016.7 |
| 20260510094049 | 10 | 0 | 0.0 | 4.8 | 0.00 | 0.00 | 0.00 | 90 | 1016.7 |
| 20260510093544 | 10 | 0 | 0.0 | 6.4 | 0.00 | 0.00 | 0.00 | 90 | 1016.6 |
| 20260510093112 | 10 | 0 | 0.0 | 6.4 | 0.00 | 0.00 | 0.00 | 90 | 1016.6 |
| 20260510092547 | 10 | 34 | 0.0 | 6.4 | 0.00 | 0.00 | 0.00 | 90 | 1016.5 |
| 20260510092044 | 10 | 49 | 1.6 | 6.4 | 0.00 | 0.00 | 0.00 | 90 | 1016.5 |
| 20260510091553 | 10 | 0 | 0.0 | 4.8 | 0.00 | 0.00 | 0.00 | 90 | 1016.6 |
| 20260510091048 | 10 | 0 | 0.0 | 1.6 | 0.00 | 0.00 | 0.00 | 89 | 1016.5 |
| 20260510090548 | 10 | 0 | 0.0 | 4.8 | 0.00 | 0.00 | 0.00 | 89 | 1016.6 |
| 20260510090049 | 10 | 0 | 0.0 | 4.8 | 0.00 | 0.00 | 0.00 | 89 | 1016.5 |
| 20260510085548 | 10 | 360 | 0.0 | 6.4 | 0.00 | 0.00 | 0.00 | 89 | 1016.5 |
| 20260510085046 | 10 | 9 | 0.0 | 6.4 | 0.00 | 0.00 | 0.00 | 89 | 1016.4 |
| 20260510084600 | 10 | 0 | 0.0 | 6.4 | 0.00 | 0.00 | 0.00 | 89 | 1016.4 |
| 20260510084049 | 10 | 0 | 0.0 | 1.6 | 0.00 | 0.00 | 0.00 | 89 | 1016.5 |
| 20260510083545 | 10 | 0 | 0.0 | 1.6 | 0.00 | 0.00 | 0.00 | 88 | 1016.4 |
| 20260510083057 | 10 | 326 | 0.0 | 1.6 | 0.00 | 0.00 | 0.00 | 88 | 1016.5 |
| 20260510082547 | 10 | 0 | 0.0 | 1.6 | 0.00 | 0.00 | 0.00 | 88 | 1016.3 |
| 20260510082045 | 10 | 0 | 0.0 | 1.6 | 0.00 | 0.00 | 0.00 | 89 | 1016.3 |
| 20260510081556 | 10 | 0 | 0.0 | 1.6 | 0.00 | 0.00 | 0.00 | 88 | 1016.3 |
| 20260510081049 | 11 | 0 | 0.0 | 1.6 | 0.00 | 0.00 | 0.00 | 88 | 1016.4 |
| 20260510080546 | 11 | 0 | 0.0 | 3.2 | 0.00 | 0.00 | 0.00 | 88 | 1016.5 |
| 20260510080052 | 11 | 0 | 0.0 | 3.2 | 0.00 | 0.00 | 0.00 | 89 | 1016.4 |
| 20260510075546 | 11 | 0 | 0.0 | 3.2 | 0.00 | 0.00 | 0.00 | 89 | 1016.3 |
| 20260510075048 | 11 | 325 | 0.0 | 3.2 | 0.00 | 0.00 | 0.00 | 89 | 1016.2 |
| 20260510074550 | 11 | 0 | 0.0 | 3.2 | 0.00 | 0.00 | 0.00 | 90 | 1016.2 |
| 20260510074046 | 11 | 0 | 0.0 | 3.2 | 0.00 | 0.00 | 0.00 | 90 | 1016.3 |
| 20260510073547 | 11 | 0 | 0.0 | 1.6 | 0.00 | 0.00 | 0.00 | 90 | 1016.3 |
| 20260510073055 | 11 | 0 | 0.0 | 1.6 | 0.00 | 0.00 | 0.00 | 90 | 1016.2 |
| 20260510072547 | 11 | 0 | 0.0 | 1.6 | 0.00 | 0.00 | 0.00 | 90 | 1016.2 |
| 20260510072046 | 11 | 0 | 0.0 | 1.6 | 0.00 | 0.00 | 0.00 | 90 | 1016.1 |
| 20260510071554 | 10 | 0 | 0.0 | 0.0 | 0.00 | 0.00 | 0.00 | 90 | 1016.0 |
| 20260510071046 | 10 | 0 | 0.0 | 0.0 | 0.00 | 0.00 | 0.00 | 90 | 1016.2 |
| 20260510070547 | 10 | 0 | 0.0 | 0.0 | 0.00 | 0.00 | 0.00 | 90 | 1016.0 |
| 20260510070053 | 11 | 0 | 0.0 | 0.0 | 0.00 | 0.00 | 0.00 | 89 | 1015.9 |
| 20260510065546 | 11 | 0 | 0.0 | 0.0 | 0.00 | 0.00 | 0.00 | 89 | 1016.0 |
| 20260510065046 | 11 | 0 | 0.0 | 0.0 | 0.00 | 0.00 | 0.00 | 89 | 1015.9 |
| 20260510064549 | 11 | 0 | 0.0 | 0.0 | 0.00 | 0.00 | 0.00 | 89 | 1015.9 |
| 20260510064045 | 11 | 0 | 0.0 | 0.0 | 0.00 | 0.00 | 0.00 | 89 | 1015.9 |
| 20260510063548 | 11 | 0 | 0.0 | 0.0 | 0.00 | 0.00 | 0.00 | 88 | 1015.9 |
| 20260510063051 | 11 | 0 | 0.0 | 0.0 | 0.00 | 0.00 | 0.00 | 88 | 1016.0 |
| 20260510062547 | 11 | 0 | 0.0 | 0.0 | 0.00 | 0.00 | 0.00 | 88 | 1016.1 |
| 20260510062047 | 11 | 0 | 0.0 | 0.0 | 0.00 | 0.00 | 0.00 | 88 | 1016.2 |
| 20260510061549 | 11 | 0 | 0.0 | 0.0 | 0.00 | 0.00 | 0.00 | 88 | 1016.1 |
| 20260510061047 | 11 | 0 | 0.0 | 0.0 | 0.00 | 0.00 | 0.00 | 87 | 1016.0 |
| 20260510060547 | 11 | 0 | 0.0 | 0.0 | 0.00 | 0.00 | 0.00 | 87 | 1016.0 |
| 20260510060053 | 12 | 0 | 0.0 | 0.0 | 0.00 | 0.00 | 0.00 | 87 | 1016.0 |
| 20260510055546 | 12 | 0 | 0.0 | 0.0 | 0.00 | 0.00 | 0.00 | 87 | 1016.0 |
| 20260510055046 | 12 | 0 | 0.0 | 0.0 | 0.00 | 0.00 | 0.00 | 88 | 1015.9 |
| 20260510054551 | 12 | 0 | 0.0 | 0.0 | 0.00 | 0.00 | 0.00 | 86 | 1016.0 |
| 20260510054046 | 12 | 0 | 0.0 | 0.0 | 0.00 | 0.00 | 0.00 | 85 | 1015.9 |
| 20260510053545 | 12 | 0 | 0.0 | 0.0 | 0.00 | 0.00 | 0.00 | 85 | 1016.0 |
| 20260510053100 | 12 | 0 | 0.0 | 0.0 | 0.00 | 0.00 | 0.00 | 85 | 1016.0 |
| 20260510052542 | 12 | 0 | 0.0 | 1.6 | 0.00 | 0.00 | 0.00 | 84 | 1016.0 |
| 20260510052047 | 12 | 0 | 0.0 | 1.6 | 0.00 | 0.00 | 0.00 | 84 | 1016.0 |
| 20260510051550 | 12 | 0 | 0.0 | 0.0 | 0.00 | 0.00 | 0.00 | 83 | 1016.2 |
| 20260510051046 | 12 | 0 | 0.0 | 0.0 | 0.00 | 0.00 | 0.00 | 83 | 1016.2 |
| 20260510050550 | 13 | 0 | 0.0 | 0.0 | 0.00 | 0.00 | 0.00 | 83 | 1016.2 |
| 20260510050052 | 13 | 0 | 0.0 | 0.0 | 0.00 | 0.00 | 0.00 | 82 | 1016.1 |
| 20260510045547 | 13 | 0 | 0.0 | 0.0 | 0.00 | 0.00 | 0.00 | 82 | 1016.0 |
| 20260510045047 | 13 | 0 | 0.0 | 0.0 | 0.00 | 0.00 | 0.00 | 82 | 1016.1 |
| 20260510044551 | 13 | 0 | 0.0 | 0.0 | 0.00 | 0.00 | 0.00 | 81 | 1016.1 |
| 20260510044046 | 13 | 0 | 0.0 | 0.0 | 0.00 | 0.00 | 0.00 | 81 | 1016.1 |
| 20260510043548 | 13 | 0 | 0.0 | 0.0 | 0.00 | 0.00 | 0.00 | 80 | 1016.0 |
| 20260510043100 | 13 | 0 | 0.0 | 0.0 | 0.00 | 0.00 | 0.00 | 79 | 1016.0 |
| 20260510042547 | 14 | 0 | 0.0 | 1.6 | 0.00 | 0.00 | 0.00 | 79 | 1015.8 |
| 20260510042050 | 14 | 0 | 0.0 | 1.6 | 0.00 | 0.00 | 0.00 | 78 | 1015.8 |
| 20260510041550 | 14 | 0 | 0.0 | 0.0 | 0.00 | 0.00 | 0.00 | 78 | 1015.9 |
| 20260510041046 | 15 | 0 | 0.0 | 0.0 | 0.00 | 0.00 | 0.00 | 77 | 1015.8 |
| 20260510040546 | 15 | 0 | 0.0 | 0.0 | 0.00 | 0.00 | 0.00 | 76 | 1015.9 |
| 20260510040052 | 15 | 0 | 0.0 | 0.0 | 0.00 | 0.00 | 0.00 | 75 | 1015.9 |
| 20260510035546 | 16 | 0 | 0.0 | 1.6 | 0.00 | 0.00 | 0.00 | 72 | 1015.8 |
| 20260510035047 | 16 | 0 | 0.0 | 1.6 | 0.00 | 0.00 | 0.00 | 71 | 1015.8 |
| 20260510034554 | 16 | 0 | 0.0 | 1.6 | 0.00 | 0.00 | 0.00 | 71 | 1015.8 |
| 20260510034046 | 16 | 0 | 0.0 | 0.0 | 0.00 | 0.00 | 0.00 | 71 | 1015.8 |
| 20260510033549 | 16 | 0 | 0.0 | 0.0 | 0.00 | 0.00 | 0.00 | 71 | 1015.8 |
| 20260510033101 | 17 | 0 | 0.0 | 0.0 | 0.00 | 0.00 | 0.00 | 71 | 1015.7 |
| 20260510032547 | 17 | 0 | 0.0 | 0.0 | 0.00 | 0.00 | 0.00 | 71 | 1015.7 |
| 20260510032047 | 17 | 0 | 0.0 | 0.0 | 0.00 | 0.00 | 0.00 | 71 | 1015.7 |
| 20260510031553 | 17 | 0 | 0.0 | 0.0 | 0.00 | 0.00 | 0.00 | 72 | 1015.6 |
| 20260510031046 | 17 | 0 | 0.0 | 0.0 | 0.00 | 0.00 | 0.00 | 71 | 1015.6 |
| 20260510030546 | 17 | 0 | 0.0 | 0.0 | 0.00 | 0.00 | 0.00 | 70 | 1015.7 |
| 20260510030056 | 18 | 0 | 0.0 | 1.6 | 0.00 | 0.00 | 0.00 | 70 | 1015.6 |
| 20260510025546 | 18 | 0 | 0.0 | 1.6 | 0.00 | 0.00 | 0.00 | 69 | 1015.7 |
| 20260510025046 | 17 | 325 | 0.0 | 3.2 | 0.00 | 0.00 | 0.00 | 65 | 1015.8 |
| 20260510024557 | 17 | 0 | 0.0 | 3.2 | 0.00 | 0.00 | 0.00 | 67 | 1015.9 |
| 20260510024045 | 17 | 0 | 0.0 | 3.2 | 0.00 | 0.00 | 0.00 | 67 | 1016.0 |
| 20260510023545 | 18 | 0 | 0.0 | 1.6 | 0.00 | 0.00 | 0.00 | 67 | 1015.9 |
| 20260510023051 | 18 | 0 | 0.0 | 1.6 | 0.00 | 0.00 | 0.00 | 66 | 1015.8 |
| 20260510022546 | 18 | 0 | 0.0 | 3.2 | 0.00 | 0.00 | 0.00 | 67 | 1015.9 |
| 20260510022046 | 17 | 0 | 0.0 | 3.2 | 0.00 | 0.00 | 0.00 | 66 | 1016.1 |
| 20260510021554 | 17 | 0 | 0.0 | 3.2 | 0.00 | 0.00 | 0.00 | 66 | 1016.2 |
| 20260510021046 | 17 | 322 | 0.0 | 4.8 | 0.00 | 0.00 | 0.00 | 66 | 1016.2 |
| 20260510020547 | 17 | 0 | 0.0 | 6.4 | 0.00 | 0.00 | 0.00 | 66 | 1016.4 |
| 20260510020054 | 17 | 350 | 1.6 | 9.7 | 0.00 | 0.00 | 0.00 | 66 | 1016.4 |
| 20260510015546 | 17 | 330 | 1.6 | 9.7 | 0.00 | 0.00 | 0.00 | 65 | 1016.4 |
| 20260510015046 | 18 | 338 | 1.6 | 9.7 | 0.00 | 0.00 | 0.00 | 65 | 1016.5 |
| 20260510014549 | 18 | 0 | 0.0 | 6.4 | 0.00 | 0.00 | 0.00 | 65 | 1016.6 |
| 20260510014048 | 18 | 0 | 0.0 | 6.4 | 0.00 | 0.00 | 0.00 | 65 | 1016.6 |
| 20260510013547 | 18 | 319 | 1.6 | 6.4 | 0.00 | 0.00 | 0.00 | 64 | 1016.7 |
| 20260510013057 | 18 | 0 | 0.0 | 6.4 | 0.00 | 0.00 | 0.00 | 64 | 1016.8 |
| 20260510012548 | 18 | 291 | 0.0 | 6.4 | 0.00 | 0.00 | 0.00 | 64 | 1016.8 |
| 20260510012046 | 18 | 268 | 1.6 | 6.4 | 0.00 | 0.00 | 0.00 | 64 | 1016.8 |
| 20260510011558 | 18 | 319 | 0.0 | 6.4 | 0.00 | 0.00 | 0.00 | 64 | 1016.9 |
| 20260510011046 | 18 | 0 | 0.0 | 8.0 | 0.00 | 0.00 | 0.00 | 64 | 1016.9 |
| 20260510010546 | 18 | 296 | 0.0 | 9.7 | 0.00 | 0.00 | 0.00 | 64 | 1017.0 |
| 20260510010051 | 18 | 257 | 3.2 | 9.7 | 0.00 | 0.00 | 0.00 | 63 | 1017.0 |
| 20260510005546 | 18 | 0 | 0.0 | 8.0 | 0.00 | 0.00 | 0.00 | 62 | 1017.1 |
| 20260510005047 | 18 | 273 | 1.6 | 12.9 | 0.00 | 0.00 | 0.00 | 62 | 1017.1 |
| 20260510004553 | 19 | 0 | 1.6 | 12.9 | 0.00 | 0.00 | 0.00 | 61 | 1017.0 |
| 20260510004047 | 19 | 225 | 0.0 | 11.3 | 0.00 | 0.00 | 0.00 | 62 | 1017.1 |
| 20260510003547 | 19 | 310 | 3.2 | 11.3 | 0.00 | 0.00 | 0.00 | 62 | 1017.2 |
| 20260510003054 | 19 | 317 | 0.0 | 8.0 | 0.00 | 0.00 | 0.00 | 61 | 1017.2 |
| 20260510002546 | 19 | 319 | 1.6 | 8.0 | 0.00 | 0.00 | 0.00 | 62 | 1017.3 |
| 20260510002048 | 19 | 0 | 1.6 | 8.0 | 0.00 | 0.00 | 0.00 | 63 | 1017.3 |
| 20260510001553 | 19 | 0 | 1.6 | 11.3 | 0.00 | 0.00 | 0.00 | 62 | 1017.3 |
| 20260510001045 | 19 | 309 | 3.2 | 11.3 | 0.00 | 0.00 | 0.00 | 61 | 1017.3 |
| 20260510000547 | 20 | 0 | 3.2 | 11.3 | 0.00 | 0.00 | 0.00 | 62 | 1017.4 |
| 20260510000057 | 19 | 0 | 3.2 | 11.3 | 0.00 | 0.00 | 0.00 | 63 | 1017.5 |
| 20260509235547 | 19 | 259 | 3.2 | 11.3 | 0.00 | 0.00 | 0.00 | 63 | 1017.6 |
| 20260509235046 | 19 | 336 | 1.6 | 11.3 | 0.00 | 0.00 | 0.00 | 63 | 1017.7 |
| 20260509234550 | 19 | 22 | 3.2 | 11.3 | 0.00 | 0.00 | 0.00 | 63 | 1017.8 |
| 20260509234046 | 19 | 306 | 3.2 | 11.3 | 0.00 | 0.00 | 0.00 | 62 | 1017.7 |
| 20260509233545 | 18 | 0 | 3.2 | 12.9 | 0.00 | 0.00 | 0.00 | 64 | 1017.7 |
| 20260509233058 | 18 | 327 | 1.6 | 12.9 | 0.00 | 0.00 | 0.00 | 65 | 1017.7 |
| 20260509232548 | 18 | 327 | 3.2 | 12.9 | 0.00 | 0.00 | 0.00 | 64 | 1017.8 |
| 20260509232047 | 18 | 0 | 3.2 | 9.7 | 0.00 | 0.00 | 0.00 | 65 | 1018.0 |
| 20260509231557 | 18 | 242 | 1.6 | 12.9 | 0.00 | 0.00 | 0.00 | 64 | 1018.0 |
| 20260509231046 | 18 | 322 | 3.2 | 12.9 | 0.00 | 0.00 | 0.00 | 65 | 1018.1 |
| 20260509230545 | 18 | 298 | 4.8 | 14.5 | 0.00 | 0.00 | 0.00 | 64 | 1018.1 |
| 20260509230056 | 18 | 74 | 4.8 | 14.5 | 0.00 | 0.00 | 0.00 | 65 | 1018.2 |
| 20260509225547 | 18 | 324 | 3.2 | 17.7 | 0.00 | 0.00 | 0.00 | 63 | 1018.5 |
| 20260509225046 | 19 | 302 | 1.6 | 17.7 | 0.00 | 0.00 | 0.00 | 60 | 1018.4 |
| 20260509224550 | 18 | 307 | 4.8 | 16.1 | 0.00 | 0.00 | 0.00 | 64 | 1018.6 |
| 20260509224048 | 19 | 217 | 3.2 | 12.9 | 0.00 | 0.00 | 0.00 | 64 | 1018.6 |
| 20260509223549 | 18 | 325 | 4.8 | 12.9 | 0.00 | 0.00 | 0.00 | 64 | 1018.6 |
| 20260509223052 | 18 | 0 | 6.4 | 17.7 | 0.00 | 0.00 | 0.00 | 63 | 1018.6 |
| 20260509222546 | 18 | 329 | 6.4 | 17.7 | 0.00 | 0.00 | 0.00 | 64 | 1018.6 |
| 20260509222046 | 18 | 293 | 3.2 | 14.5 | 0.00 | 0.00 | 0.00 | 64 | 1018.7 |
| 20260509221555 | 19 | 321 | 1.6 | 12.9 | 0.00 | 0.00 | 0.00 | 63 | 1018.7 |
| 20260509221145 | 19 | 288 | 1.6 | 14.5 | 0.00 | 0.00 | 0.00 | 62 | 1018.7 |
| 20260509220546 | 19 | 329 | 1.6 | 14.5 | 0.00 | 0.00 | 0.00 | 63 | 1018.7 |
| 20260509220051 | 18 | 315 | 6.4 | 16.1 | 0.00 | 0.00 | 0.00 | 63 | 1018.8 |
| 20260509215547 | 18 | 330 | 3.2 | 17.7 | 0.00 | 0.00 | 0.00 | 63 | 1018.9 |
| 20260509215047 | 18 | 42 | 8.0 | 17.7 | 0.00 | 0.00 | 0.00 | 64 | 1018.8 |
| 20260509214610 | 18 | 251 | 6.4 | 19.3 | 0.00 | 0.00 | 0.00 | 64 | 1018.9 |
| 20260509214046 | 19 | 316 | 4.8 | 22.5 | 0.00 | 0.00 | 0.00 | 63 | 1019.0 |
| 20260509213545 | 18 | 245 | 4.8 | 22.5 | 0.00 | 0.00 | 0.00 | 63 | 1019.0 |
| 20260509213053 | 18 | 336 | 4.8 | 16.1 | 0.00 | 0.00 | 0.00 | 63 | 1019.1 |
| 20260509212546 | 18 | 0 | 4.8 | 14.5 | 0.00 | 0.00 | 0.00 | 63 | 1019.2 |
| 20260509212047 | 19 | 300 | 4.8 | 17.7 | 0.00 | 0.00 | 0.00 | 63 | 1019.2 |
| 20260509211552 | 19 | 294 | 6.4 | 17.7 | 0.00 | 0.00 | 0.00 | 62 | 1019.3 |
| 20260509211047 | 19 | 233 | 4.8 | 14.5 | 0.00 | 0.00 | 0.00 | 62 | 1019.3 |
| 20260509210544 | 19 | 332 | 3.2 | 12.9 | 0.00 | 0.00 | 0.00 | 60 | 1019.3 |
| 20260509210100 | 19 | 15 | 1.6 | 11.3 | 0.00 | 0.00 | 0.00 | 61 | 1019.2 |
| 20260509205546 | 19 | 0 | 3.2 | 14.5 | 0.00 | 0.00 | 0.00 | 62 | 1019.2 |
| 20260509205046 | 18 | 340 | 3.2 | 14.5 | 0.00 | 0.00 | 0.00 | 62 | 1019.3 |
| 20260509204554 | 19 | 303 | 3.2 | 11.3 | 0.00 | 0.00 | 0.00 | 61 | 1019.3 |
| 20260509204044 | 18 | 0 | 4.8 | 11.3 | 0.00 | 0.00 | 0.00 | 61 | 1019.3 |
| 20260509203544 | 18 | 307 | 3.2 | 6.4 | 0.00 | 0.00 | 0.00 | 62 | 1019.3 |
| 20260509203059 | 18 | 338 | 1.6 | 6.4 | 0.00 | 0.00 | 0.00 | 62 | 1019.2 |
| 20260509202548 | 19 | 5 | 1.6 | 12.9 | 0.00 | 0.00 | 0.00 | 60 | 1019.3 |
| 20260509202046 | 18 | 317 | 3.2 | 12.9 | 0.00 | 0.00 | 0.00 | 63 | 1019.4 |
| 20260509201551 | 18 | 302 | 0.0 | 9.7 | 0.00 | 0.00 | 0.00 | 63 | 1019.4 |
| 20260509201047 | 18 | 0 | 4.8 | 8.0 | 0.00 | 0.00 | 0.00 | 64 | 1019.5 |
| 20260509200548 | 18 | 338 | 1.6 | 8.0 | 0.00 | 0.00 | 0.00 | 62 | 1019.6 |
| 20260509200056 | 18 | 0 | 1.6 | 11.3 | 0.00 | 0.00 | 0.00 | 61 | 1019.7 |
| 20260509195545 | 18 | 319 | 1.6 | 12.9 | 0.00 | 0.00 | 0.00 | 64 | 1019.7 |
| 20260509195048 | 17 | 282 | 4.8 | 12.9 | 0.00 | 0.00 | 0.00 | 64 | 1019.8 |
| 20260509194554 | 18 | 26 | 1.6 | 12.9 | 0.00 | 0.00 | 0.00 | 65 | 1019.8 |
| 20260509194050 | 17 | 298 | 3.2 | 11.3 | 0.00 | 0.00 | 0.00 | 65 | 1019.8 |
| 20260509193547 | 17 | 14 | 1.6 | 11.3 | 0.00 | 0.00 | 0.00 | 65 | 1019.9 |
| 20260509193058 | 18 | 292 | 4.8 | 11.3 | 0.00 | 0.00 | 0.00 | 63 | 1020.0 |
| 20260509192548 | 18 | 329 | 3.2 | 11.3 | 0.00 | 0.00 | 0.00 | 62 | 1020.0 |
| 20260509192048 | 17 | 322 | 3.2 | 12.9 | 0.00 | 0.00 | 0.00 | 66 | 1020.2 |
| 20260509191600 | 17 | 284 | 3.2 | 12.9 | 0.00 | 0.00 | 0.00 | 65 | 1020.2 |
| 20260509191048 | 17 | 327 | 1.6 | 11.3 | 0.00 | 0.00 | 0.00 | 68 | 1020.1 |
| 20260509190544 | 17 | 269 | 3.2 | 11.3 | 0.00 | 0.00 | 0.00 | 66 | 1020.1 |
| 20260509190056 | 17 | 295 | 1.6 | 11.3 | 0.00 | 0.00 | 0.00 | 65 | 1020.2 |
| 20260509185546 | 17 | 225 | 1.6 | 11.3 | 0.00 | 0.00 | 0.00 | 67 | 1020.2 |
| 20260509185046 | 17 | 329 | 3.2 | 11.3 | 0.00 | 0.00 | 0.00 | 67 | 1020.4 |
| 20260509184559 | 17 | 304 | 1.6 | 12.9 | 0.00 | 0.00 | 0.00 | 67 | 1020.5 |
| 20260509184045 | 17 | 311 | 3.2 | 12.9 | 0.00 | 0.00 | 0.00 | 67 | 1020.5 |
| 20260509183543 | 17 | 297 | 1.6 | 8.0 | 0.00 | 0.00 | 0.00 | 67 | 1020.5 |
| 20260509183059 | 17 | 244 | 3.2 | 8.0 | 0.00 | 0.00 | 0.00 | 66 | 1020.5 |
| 20260509182549 | 17 | 289 | 1.6 | 9.7 | 0.00 | 0.00 | 0.00 | 66 | 1020.5 |
| 20260509182044 | 17 | 11 | 3.2 | 9.7 | 0.00 | 0.00 | 0.00 | 66 | 1020.5 |
| 20260509181554 | 17 | 17 | 3.2 | 9.7 | 0.00 | 0.00 | 0.00 | 67 | 1020.5 |
| 20260509181047 | 17 | 309 | 0.0 | 14.5 | 0.00 | 0.00 | 0.00 | 66 | 1020.6 |
| 20260509180547 | 17 | 325 | 4.8 | 14.5 | 0.00 | 0.00 | 0.00 | 66 | 1020.5 |
| 20260509180050 | 17 | 193 | 4.8 | 11.3 | 0.00 | 0.00 | 0.00 | 65 | 1020.5 |
| 20260509175549 | 16 | 203 | 0.0 | 9.7 | 0.00 | 0.00 | 0.00 | 67 | 1020.5 |
| 20260509175047 | 16 | 249 | 3.2 | 9.7 | 0.00 | 0.00 | 0.00 | 67 | 1020.6 |
| 20260509174603 | 16 | 319 | 0.0 | 8.0 | 0.00 | 0.00 | 0.00 | 67 | 1020.6 |
| 20260509174045 | 16 | 352 | 4.8 | 8.0 | 0.00 | 0.00 | 0.00 | 67 | 1020.6 |
| 20260509173545 | 16 | 360 | 0.0 | 8.0 | 0.00 | 0.00 | 0.00 | 67 | 1020.7 |
| 20260509173052 | 16 | 35 | 3.2 | 12.9 | 0.00 | 0.00 | 0.00 | 66 | 1020.7 |
| 20260509172547 | 16 | 145 | 0.0 | 12.9 | 0.00 | 0.00 | 0.00 | 69 | 1020.7 |
| 20260509172046 | 16 | 223 | 4.8 | 12.9 | 0.00 | 0.00 | 0.00 | 70 | 1020.8 |
| 20260509171550 | 16 | 0 | 0.0 | 6.4 | 0.00 | 0.00 | 0.00 | 69 | 1020.9 |
| 20260509171047 | 15 | 307 | 1.6 | 8.0 | 0.00 | 0.00 | 0.00 | 68 | 1020.9 |
| 20260509170547 | 15 | 0 | 1.6 | 8.0 | 0.00 | 0.00 | 0.00 | 66 | 1020.9 |
| 20260509170051 | 15 | 352 | 1.6 | 8.0 | 0.00 | 0.00 | 0.00 | 70 | 1020.9 |
| 20260509165544 | 15 | 307 | 0.0 | 6.4 | 0.00 | 0.00 | 0.00 | 71 | 1020.9 |
| 20260509165046 | 15 | 342 | 1.6 | 8.0 | 0.00 | 0.00 | 0.00 | 71 | 1020.9 |
| 20260509164551 | 15 | 10 | 0.0 | 8.0 | 0.00 | 0.00 | 0.00 | 72 | 1021.0 |
| 20260509164045 | 14 | 310 | 3.2 | 6.4 | 0.00 | 0.00 | 0.00 | 73 | 1021.1 |
| 20260509163546 | 15 | 360 | 1.6 | 6.4 | 0.00 | 0.00 | 0.00 | 73 | 1021.2 |
| 20260509163051 | 14 | 298 | 0.0 | 6.4 | 0.00 | 0.00 | 0.00 | 73 | 1021.3 |
| 20260509162547 | 14 | 0 | 3.2 | 6.4 | 0.00 | 0.00 | 0.00 | 73 | 1021.4 |
| 20260509162045 | 14 | 331 | 0.0 | 3.2 | 0.00 | 0.00 | 0.00 | 77 | 1021.5 |
| 20260509161550 | 14 | 332 | 0.0 | 6.4 | 0.00 | 0.00 | 0.00 | 76 | 1021.4 |
| 20260509161045 | 13 | 0 | 0.0 | 6.4 | 0.00 | 0.00 | 0.00 | 76 | 1021.5 |
| 20260509160546 | 13 | 329 | 0.0 | 4.8 | 0.00 | 0.00 | 0.00 | 77 | 1021.6 |
| 20260509160055 | 13 | 0 | 0.0 | 4.8 | 0.00 | 0.00 | 0.00 | 78 | 1021.5 |
| 20260509155549 | 13 | 0 | 0.0 | 4.8 | 0.00 | 0.00 | 0.00 | 79 | 1021.6 |
| 20260509155045 | 13 | 0 | 0.0 | 6.4 | 0.00 | 0.00 | 0.00 | 78 | 1021.7 |
| 20260509154553 | 12 | 0 | 0.0 | 6.4 | 0.00 | 0.00 | 0.00 | 80 | 1021.7 |
| 20260509154046 | 12 | 350 | 1.6 | 6.4 | 0.00 | 0.00 | 0.00 | 81 | 1021.6 |
| 20260509153548 | 12 | 0 | 0.0 | 4.8 | 0.00 | 0.00 | 0.00 | 81 | 1021.6 |
| 20260509153110 | 12 | 0 | 0.0 | 6.4 | 0.00 | 0.00 | 0.00 | 82 | 1021.7 |
| 20260509152547 | 12 | 142 | 1.6 | 6.4 | 0.00 | 0.00 | 0.00 | 82 | 1021.8 |
| 20260509152047 | 12 | 0 | 0.0 | 3.2 | 0.00 | 0.00 | 0.00 | 83 | 1021.8 |
| 20260509151553 | 12 | 0 | 0.0 | 3.2 | 0.00 | 0.00 | 0.00 | 85 | 1021.8 |
| 20260509151047 | 11 | 0 | 0.0 | 3.2 | 0.00 | 0.00 | 0.00 | 85 | 1021.9 |
| 20260509150550 | 11 | 0 | 0.0 | 3.2 | 0.00 | 0.00 | 0.00 | 86 | 1021.9 |
| 20260509150054 | 11 | 0 | 0.0 | 3.2 | 0.00 | 0.00 | 0.00 | 87 | 1022.0 |
| 20260509145548 | 11 | 137 | 0.0 | 3.2 | 0.00 | 0.00 | 0.00 | 88 | 1022.1 |
| 20260509145047 | 11 | 137 | 0.0 | 3.2 | 0.00 | 0.00 | 0.00 | 89 | 1022.0 |
| 20260509144552 | 11 | 0 | 0.0 | 1.6 | 0.00 | 0.00 | 0.00 | 90 | 1022.1 |
| 20260509144048 | 10 | 0 | 0.0 | 1.6 | 0.00 | 0.00 | 0.00 | 91 | 1022.1 |
| 20260509143546 | 10 | 0 | 0.0 | 0.0 | 0.00 | 0.00 | 0.00 | 91 | 1022.1 |
| 20260509143052 | 10 | 0 | 0.0 | 0.0 | 0.00 | 0.00 | 0.00 | 91 | 1022.1 |
| 20260509142546 | 10 | 0 | 0.0 | 0.0 | 0.00 | 0.00 | 0.00 | 91 | 1022.1 |
| 20260509142047 | 10 | 0 | 0.0 | 0.0 | 0.00 | 0.00 | 0.00 | 92 | 1022.2 |
| 20260509141554 | 10 | 0 | 0.0 | 0.0 | 0.00 | 0.00 | 0.00 | 92 | 1022.2 |
| 20260509141047 | 10 | 0 | 0.0 | 0.0 | 0.00 | 0.00 | 0.00 | 92 | 1022.2 |
| 20260509140546 | 10 | 0 | 0.0 | 0.0 | 0.00 | 0.00 | 0.00 | 92 | 1022.3 |
| 20260509140052 | 10 | 0 | 0.0 | 0.0 | 0.00 | 0.00 | 0.00 | 91 | 1022.3 |
| 20260509135548 | 10 | 0 | 0.0 | 0.0 | 0.00 | 0.00 | 0.00 | 91 | 1022.3 |
| 20260509135047 | 10 | 0 | 0.0 | 0.0 | 0.00 | 0.00 | 0.00 | 91 | 1022.4 |
| 20260509134551 | 10 | 0 | 0.0 | 0.0 | 0.00 | 0.00 | 0.00 | 91 | 1022.4 |